Regional Weather Roundup
Issued by NWS

Home | Current Version | Previous Version | Text Only | Print | Product List | Glossary On
Versions: 1 2 3 4 5 6 7 8 9 10 11 12 13 14 15 16 17 18 19 20 21 22 23 24 25 26 27 28 29 30 31 32 33 34 35 36 37 38 39 40 41 42 43 44 45 46 47 48 49 50
000
ASUS44 KOUN 050710
RWROK

WEATHER ROUNDUP FOR OKLAHOMA
NATIONAL WEATHER SERVICE NORMAN OK
200 AM CDT SAT SEP 05 2015

NOTE: "FAIR" INDICATES FEW OR NO CLOUDS BELOW 12,000 FEET WITH NO
      SIGNIFICANT WEATHER AND/OR OBSTRUCTIONS TO VISIBILITY.

OKZ001>007-009>012-014-015-017-050800-
NORTHWEST OKLAHOMA AND THE PANHANDLE

CITY           SKY/WX    TMP DP  RH WIND       PRES   REMARKS
GAGE           PTCLDY    77  63  61 S17       29.96R
GUYMON         CLOUDY    76  56  49 S10       29.97R
ENID/WOODRING  PTCLDY    73  68  83 SE6       29.94S
$$

OKZ016-021>023-033>039-044-045-050800-
SOUTHWEST OKLAHOMA

CITY           SKY/WX    TMP DP  RH WIND       PRES   REMARKS
LAWTON/REGL    CLEAR     78  66  66 E6        29.94S
LAWTON/FT SILL CLEAR     76  67  73 SE5       29.93S
FREDERICK      CLEAR     78  67  68 SE9       29.91S
CLINTON        CLEAR     79  65  62 S13       29.97F
HOBART         CLEAR     80  65  59 S13       29.95S
ALTUS AFB      CLEAR     74  66  75 SE7       29.93F
$$

OKZ018>020-024>031-050800-
CENTRAL OKLAHOMA

CITY           SKY/WX    TMP DP  RH WIND       PRES   REMARKS
OKLAHOMA CITY  PTCLDY    76  67  73 S7        29.97R
OKC/WILEY POST CLEAR     81  66  60 S12       29.96R
OKC/TINKER AFB CLEAR     74  67  77 SE7       29.96S
STILLWATER     CLEAR     78  69  73 SE6       29.95S
GUTHRIE        CLEAR     78  67  68 SE7       29.96R
$$

OKZ008-013-054>072-050800-
NORTHEAST OKLAHOMA

CITY           SKY/WX    TMP DP  RH WIND       PRES   REMARKS
TULSA          PTCLDY    77  72  84 SE7       29.95R
TULSA/JONES    CLEAR     79  70  74 S3        29.96R
PONCA CITY     CLEAR     79  69  71 SE13      29.95S
BARTLESVILLE   CLEAR     70  70 100 CALM      29.97S
MUSKOGEE       PTCLDY    76  72  87 S5        29.98R
$$

OKZ032-040>043-046>053-073>077-050800-
SOUTH CENTRAL/SOUTHEAST OKLAHOMA

CITY           SKY/WX    TMP DP  RH WIND       PRES   REMARKS
ARDMORE/DWNTWN CLEAR     75  66  73 CALM      29.95S
MCALESTER      PTCLDY    77  70  79 SE5       29.98R
$$



USA.gov is the U.S. government's official web portal to all federal, state and local government web resources and services.